Weather History for Tucumcari, NM

Change the Weather History Date:

Friday, August 30, 2013

  Actual Average Record
Temperature  
Mean Temperature 84 °F -  
Max Temperature 100 °F 89 °F 102 °F (2011)
Min Temperature 68 °F 61 °F 49 °F (1915)
Cooling Degree Days 18    
Growing Degree Days 34 (Base 50)    
Moisture  
Dew Point 51 °F    
Average Humidity 33    
Maximum Humidity 56    
Minimum Humidity 18    
Precipitation  
Precipitation 0.00 in - - ()
Sea Level Pressure  
Sea Level Pressure 29.86 in    
Wind  
Wind Speed 7 mph (SW)    
Max Wind Speed 12 mph    
Max Gust Speed 16 mph    
Visibility 10 miles    
Events      
Averages and records for this station are not official NWS values.
T = Trace of Precipitation, MM = Missing Value Source: NWS Daily Summary

Daily Weather History Graph

Daily Weather History Graph

Search for Another Location

Airport:

Trip Planner

Search our weather history database for the weather conditions in past years. The results will help you decide how hot, cold, wet, or windy it might be!

Date:

Astronomy

Aug. 30, 2013 Rise Set
Actual Time 6:25 AM MDT 7:23 PM MDT
Civil Twilight 5:59 AM MDT 7:49 PM MDT
Nautical Twilight 5:28 AM MDT 8:20 PM MDT
Astronomical Twilight 4:57 AM MDT 8:51 PM MDT
Moon 1:12 AM MDT (8/30) 3:34 PM MDT (8/30)
Length of Visible Light 13h 49m
Length of Day
12h 57m
Waning Crescent, 28% of the Moon is Illuminated
Aug 30
Waning Crescent
Sep 5
New
Sep 12
First Quarter
Sep 19
Full
Sep 26
Last Quarter

Hourly Weather History & Observations

Time (MDT) Temp. Heat Index Dew Point Humidity Pressure Visibility Wind Dir Wind Speed Gust Speed Precip Events Conditions
12:53 AM 75.9 °F - 53.1 °F 45% 29.92 in 10.0 mi SW 9.2 mph - N/A   Clear
1:53 AM 73.9 °F - 52.0 °F 46% 29.91 in 10.0 mi WSW 5.8 mph - N/A   Clear
2:53 AM 73.0 °F - 52.0 °F 48% 29.90 in 10.0 mi SW 6.9 mph - N/A   Clear
3:53 AM 73.0 °F - 52.0 °F 48% 29.90 in 10.0 mi WSW 4.6 mph - N/A   Clear
4:53 AM 70.0 °F - 52.0 °F 53% 29.90 in 10.0 mi SSW 6.9 mph - N/A   Clear
5:53 AM 68.0 °F - 52.0 °F 56% 29.91 in 10.0 mi SW 5.8 mph - N/A   Clear
6:53 AM 70.0 °F - 53.1 °F 55% 29.93 in 10.0 mi SSW 5.8 mph - N/A   Clear
7:53 AM 77.0 °F - 53.1 °F 43% 29.93 in 10.0 mi SW 3.5 mph - N/A   Clear
8:53 AM 82.9 °F - 52.0 °F 34% 29.92 in 10.0 mi WSW 4.6 mph - N/A   Clear
9:53 AM 88.0 °F 85.7 °F 53.1 °F 30% 29.92 in 10.0 mi SW 6.9 mph - N/A   Clear
10:53 AM 91.9 °F 89.5 °F 53.1 °F 27% 29.90 in 10.0 mi South 5.8 mph - N/A   Clear
11:53 AM 96.1 °F - 52.0 °F 22% 29.88 in 10.0 mi Calm Calm - N/A   Clear
12:53 PM 98.1 °F 95.7 °F 53.1 °F 22% 29.86 in 10.0 mi SSE 11.5 mph 16.1 mph N/A   Partly Cloudy
1:53 PM 99.0 °F - 52.0 °F 21% 29.84 in 10.0 mi Calm Calm - N/A   Clear
2:53 PM 99.0 °F - 51.1 °F 20% 29.82 in 10.0 mi SW 8.1 mph - N/A   Partly Cloudy
3:53 PM 98.1 °F - 51.1 °F 20% 29.81 in 10.0 mi West 4.6 mph - N/A   Clear
4:53 PM 99.0 °F - 48.9 °F 18% 29.79 in 10.0 mi South 5.8 mph - N/A   Clear
5:53 PM 99.0 °F - 48.0 °F 18% 29.79 in 10.0 mi SSW 11.5 mph - N/A   Clear
6:53 PM 96.1 °F - 48.9 °F 20% 29.79 in 10.0 mi South 8.1 mph - N/A   Clear
7:53 PM 88.0 °F - 48.9 °F 26% 29.80 in 10.0 mi SSW 8.1 mph - N/A   Clear
8:53 PM 84.0 °F - 48.9 °F 29% 29.81 in 10.0 mi SSW 9.2 mph - N/A   Clear
9:53 PM 86.0 °F - 50.0 °F 29% 29.80 in 10.0 mi SSW 11.5 mph - N/A   Clear
10:53 PM 82.0 °F - 50.0 °F 33% 29.81 in 10.0 mi SW 6.9 mph - N/A   Clear
11:53 PM 79.0 °F - 50.0 °F 36% 29.81 in 10.0 mi SW 6.9 mph - N/A   Clear